Location: Igri�s
(42.2144°N, 0.4320°W)
Time: 18:17:36
(UTC+00:00)

CZ-2C R/B - Pass Details

Date: 13 August 2020
Orbit: 784 x 870 km, 98.3° (Epoch: 18 September)

Event Time Altitude Azimuth Distance (km) Brightness Sun altitude
Rises 20:25:51 0° 7° (N) 3,286 6.2 -14.1°
Reaches altitude 10° 20:28:14 10° 2° (N) 2,356 5.5 -14.5°
Maximum altitude 20:33:13 50° 289° (WNW) 1,008 3.5 -15.2°
Drops below altitude 10° 20:38:15 10° 215° (SW) 2,371 5.0 -16.0°
Sets 20:40:38 0° 210° (SSW) 3,309 5.7 -16.3°
